Regional Weather Roundup
Issued by NWS State College, PA

Current Version | Previous Version | Text Only | Print | Product List | Glossary On
Versions: 1 2 3 4 5 6 7 8 9 10 11 12 13 14 15 16 17 18 19 20 21 22 23 24 25 26 27 28 29 30 31 32 33 34 35 36 37 38 39 40 41 42 43 44 45 46 47 48 49 50
000
ASUS41 KCTP 131010
RWRCTP

REGIONAL WEATHER ROUNDUP
NATIONAL WEATHER SERVICE STATE COLLEGE PA
500 AM EST WED DEC 13 2017

Note: "fair" indicates few or no clouds below 12,000 feet with no
significant weather and/or obstructions to visibility.

* = STATION THAT DOES NOT REPORT PRECIPITATION /E.G. RAIN...SNOW...ETC/
    THUNDER OR FOG.

PAZ002>004-007>009-013>016-020>023-029>032-131100-
WESTERN PENNSYLVANIA

CITY           SKY/WX    TMP DP  RH WIND       PRES   REMARKS
ERIE           CLOUDY    21  11  65 NW16G26   29.75R WCI   7
MEADVILLE      CLOUDY    14   6  70 W16G25    29.73R WCI  -2
FRANKLIN*      LGT SNOW  13   9  84 W10       29.72R FOG     WCI   0
NEW CASTLE     FLURRIES  14  10  84 W10G18    29.80S WCI   1
BEAVER COUNTY  NOT AVBL
BUTLER*        FLURRIES  13   8  81 W14G20    29.78R WCI  -2
PITTSBURGH INT MOCLDY    16   5  62 W12       29.80S WCI   3
PITTSBURGH     PTCLDY    13   3  64 W14       29.79S WCI  -2
INDIANA*       CLOUDY    14   9  79 W13G29    29.77R HAZE    WCI   0
LATROBE        CLOUDY    14   5  67 SW16      29.80S WCI  -2
WASHINGTON CO* MOCLDY    14   3  61 W13       29.86S WCI   0
$$

PAZ004>006-010>012-017>019-024>028-033>037-041-042-045-046-049>053-131100-
CENTRAL PENNSYLVANIA

CITY           SKY/WX    TMP DP  RH WIND       PRES   REMARKS
BRADFORD       LGT SNOW  13   9  84 W14G25    29.55R FOG     WCI  -2
DUBOIS         CLOUDY    11   5  77 W20G29    29.62R HAZE    WCI  -7
CLEARFIELD     CLOUDY    14   6  70 W15G25    29.64R WCI  -1
JOHNSTOWN      CLOUDY    10   3  73 W23G31    29.64R WCI -10
ALTOONA        CLOUDY    16   4  59 W16G26    29.68R WCI   1
STATE COLLEGE  CLOUDY    16   6  64 W13G26    29.64R WCI   2
WILLIAMSPORT   CLOUDY    20   6  55 W14G22    29.60F WCI   7
SELINSGROVE    CLOUDY    19   5  54 W13G23    29.65S WCI   6
FT INDIANTOWN  PTCLDY    19   2  47 W17G32    29.63S WCI   4
CAPITAL CITY   PTCLDY    21   1  41 W14G23    29.68R WCI   8
HARRISBURG     PTCLDY    21   6  52 W16G26    29.67R WCI   7
YORK           PTCLDY    19   7  59 W8G23     29.68S WCI   9
$$

PAZ038>040-043-044-047-048-054-055-060>062-067>071-131100-
EASTERN PENNSYLVANIA

CITY           SKY/WX    TMP DP  RH WIND       PRES   REMARKS
SCRANTON       CLOUDY    16   6  65 W12       29.51S WCI   3
MOUNT POCONO   CLOUDY    10   5  80 W18G29    29.40F WCI  -8
ALLENTOWN      MOCLDY    20   5  52 W16G25    29.58F WCI   6
QUAKERTOWN*    CLOUDY    18   5  57 W12G20    29.59F WCI   5
READING        PTCLDY    19   6  57 W16G23    29.63R WCI   4
LANCASTER      PTCLDY    19   5  54 W20G31    29.65S WCI   3
COATESVILLE    SUNNY     18   3  53 W18G26    29.63S WCI   2
POTTSTOWN      MOCLDY    18   3  52 W9G18     29.63F WCI   7
BLUE BELL      PTCLDY    19   5  53 W8        29.63F WCI   9
DOYLESTOWN     PTCLDY    18   3  52 W15G24    29.58F WCI   4
WILLOW GROVE   NOT AVBL
NORTH PHILA    PTCLDY    21   4  47 W16G25    29.64F WCI   7
PHILADELPHIA   PTCLDY    21   2  43 W15       29.66S WCI   8
$$




USA.gov is the U.S. government's official web portal to all federal, state and local government web resources and services.